User: anonymous   Login
Location: Gebenbach
(49.5378°N, 11.8735°E)
Time: 23:10:01
(UTC+00:00)
Language:

IRIDIUM 33 DEB - Orbit

View from above orbital plane
View from above orbital plane
View from above satellite
View from above satellite

Ground track
Ground track

The orbit data is extracted from the following two-line orbital elements,

1 36083U 97051VQ  21124.49528858  .00000384  00000-0  12604-3 0  9992
2 36083  86.3509  32.4357 0029568 355.9942   4.1013 14.35594551613656
Epoch (UTC): 04 May 2021 11:53:12
Eccentricity: 0.0029568
inclination: 86.3509°
perigee height: 752 km
apogee height: 794 km
right ascension of ascending node: 32.4357°
argument of perigee: 355.9942°
revolutions per day: 14.35594551
mean anomaly at epoch: 4.1013°
orbit number at epoch: 61365

The dashed part of the orbit path shows where the satellite is in the earth's shadow,  

DLR